Temp
6 6 7 7 7 7 8 7 9 10 10 10 10 9 10 10 10 10 10 9 9 9 9 8 8 8 8 8 8 7 7 7 7 7 6 6 6 5 5 5 5 5 6 7 8 7 7
6 6 7 8 9 9 8 8 8 9 9 10 10 10 10 10 10 10 10 10 9 9 8 8 7 7 7 7 7 7 7 7 6 6 6 6 5 5 5 5 5 6 6 6 6 7 7
6 6 5 6 7 8 9 9 8 8 8 9 9 9 10 10 10 10 9 9 9 9 8 8 7 7 7 8 8 7 7 7 6 6 6 5 5 4 5 5 6 6 5 5 6 7 6
6 5 6 6 6 7 7 8 9 10 9 9 9 9 9 10 10 10 10 9 9 8 8 8 7 7 8 8 8 7 7 6 6 6 5 5 5 4 4 5 5 5 5 5 7 7 7
7 6 7 7 7 7 6 6 7 9 10 10 10 10 10 10 10 10 9 9 9 8 8 8 7 6 8 8 8 7 7 6 6 6 5 5 4 5 5 5 4 6 4 5 5 7 6
8 8 8 8 8 8 8 6 6 7 8 9 10 10 10 10 9 9 9 9 8 7 7 7 6 6 8 8 7 7 7 6 6 6 5 4 4 3 5 4 4 3 3 4 3 6 7
7 7 8 9 9 8 9 8 7 6 6 8 9 9 10 10 9 9 9 9 8 7 7 8 7 7 8 7 7 7 7 6 5 5 4 4 4 5 4 3 5 5 5 5 6 7 6
7 7 7 8 8 9 8 8 6 5 4 7 8 9 9 9 9 8 8 8 6 6 5 7 7 6 8 7 6 7 6 6 5 4 5 4 4 4 5 4 5 4 4 5 6 7 6
7 7 7 7 7 8 8 7 4 5 6 7 8 8 9 9 8 7 7 7 6 6 4 7 7 7 7 7 6 7 7 6 4 5 4 4 5 5 5 5 5 5 5 5 5 6 6
6 7 7 7 7 7 7 8 6 5 7 8 8 8 8 8 7 7 6 6 6 5 0 3 6 7 7 6 6 7 7 6 4 4 4 5 5 5 4 5 6 5 6 6 5 5 5
6 7 7 7 6 6 6 7 7 6 8 7 8 8 8 7 6 7 6 6 6 5 5 5 7 7 6 6 7 7 6 6 5 5 5 6 6 5 5 6 5 5 6 6 5 5 5
5 6 6 7 7 6 7 6 6 7 7 7 7 7 8 7 6 6 6 6 5 2 5 4 7 6 6 6 6 6 6 5 5 5 4 5 6 6 6 6 6 7 6 6 5 5 5
4 5 5 6 7 7 7 7 6 7 6 5 6 7 7 6 5 5 6 6 2 2 6 7 6 5 6 6 6 6 5 4 5 4 3 5 5 6 6 6 6 6 6 4 2 0 4
3 4 5 5 5 6 7 7 6 7 5 4 4 6 7 6 5 5 5 3 4 6 5 8 7 6 6 6 6 7 6 5 5 5 4 6 3 6 6 6 7 6 5 6 7 4 7
3 3 4 5 5 5 6 7 7 5 4 3 3 4 6 7 5 4 5 0 4 5 7 7 7 6 6 7 6 7 5 5 6 4 5 4 4 7 5 6 6 7 5 7 7 5 6
2 3 3 4 5 5 6 6 7 6 4 3 3 3 5 5 4 4 3 4 5 6 7 8 8 6 6 7 6 6 6 6 7 5 7 7 5 7 7 7 7 6 7 6 4 7 7
2 2 3 3 4 5 5 5 6 6 4 3 2 2 4 4 4 3 3 2 4 7 8 7 6 6 5 7 6 6 6 7 8 8 6 7 5 6 7 7 8 7 6 6 6 6 7
2 2 3 3 4 4 5 5 4 6 4 3 2 2 3 3 3 3 3 2 6 7 8 7 6 5 5 5 6 5 6 7 9 8 7 6 6 5 6 7 6 8 7 6 6 5 6
2 2 3 3 3 4 4 5 4 4 5 3 2 3 3 3 3 3 3 3 5 6 6 6 6 5 5 5 6 5 7 9 8 7 7 7 5 5 5 7 7 7 7 7 5 5 7
2 2 2 2 3 2 3 4 4 3 4 3 3 3 3 2 3 1 2 4 5 7 7 7 7 6 5 5 5 6 6 8 8 8 8 7 5 5 5 6 6 5 5 6 6 5 5
1 1 1 1 1 2 2 3 3 3 4 3 3 2 4 3 3 4 2 3 4 6 6 7 6 5 5 5 5 4 5 6 8 8 7 5 4 4 5 5 5 5 5 5 4 6 6
1 1 2 2 1 2 2 2 2 3 3 3 2 2 3 2 5 4 4 3 4 6 5 5 5 6 4 5 6 6 6 6 6 6 6 4 5 4 4 5 5 5 5 4 4 5 6
0 1 1 1 1 1 2 2 3 3 2 2 1 2 4 2 2 4 4 4 3 6 7 8 6 5 5 5 7 8 7 6 6 6 5 4 3 3 4 4 4 6 8 7 6 6 7
0 0 0 0 1 1 1 2 3 3 2 2 1 3 3 2 3 4 3 3 3 4 7 7 7 5 7 7 7 6 5 4 3 3 4 3 3 2 3 3 4 8 5 5 6 6 6
-1 -1 -0 -0 0 0 1 2 3 3 2 2 1 2 4 1 3 2 3 2 4 6 5 7 7 7 7 7 4 5 4 5 4 3 1 2 3 3 2 2 5 8 8 7 7 8 7
-2 -2 -1 -1 -0 -0 1 1 3 3 2 2 0 1 3 3 2 6 4 5 2 2 4 5 5 6 7 3 4 6 5 7 6 4 1 1 1 3 2 4 6 8 8 7 6 8 6
-3 -3 -1 -1 -1 -1 0 1 2 3 3 2 1 1 2 3 6 5 4 4 7 4 3 3 4 4 6 2 4 4 4 5 6 6 3 2 1 2 2 3 4 5 6 7 8 8 7
-3 -3 -3 -1 -2 -2 -0 0 1 3 3 3 1 1 2 3 5 6 6 7 5 6 3 4 4 3 1 4 4 3 2 3 4 5 3 3 2 1 1 2 4 7 8 10 8 8 8
-3 -3 -3 -2 -2 -1 -0 -0 1 3 3 2 2 1 2 3 4 5 5 6 6 7 8 5 5 4 4 2 1 1 3 0 3 6 4 5 5 4 3 4 6 8 8 9 8 8 8
Height
1559 1559 1559 1558 1557 1557 1556 1555 1554 1554 1553 1553 1553 1551 1550 1549 1547 1546 1545 1543 1541 1539 1537 1535 1533 1532 1531 1531 1532 1530 1530 1529 1528 1528 1526 1525 1525 1525 1526 1525 1523 1521 1517 1515 1514 1513 1512
1557 1557 1557 1556 1556 1556 1555 1554 1553 1552 1551 1551 1551 1551 1549 1548 1547 1545 1543 1541 1539 1537 1536 1534 1532 1531 1531 1532 1531 1530 1529 1529 1528 1527 1526 1525 1526 1526 1525 1524 1524 1517 1515 1512 1511 1508 1507
1556 1556 1555 1555 1554 1553 1553 1553 1552 1550 1550 1550 1549 1548 1548 1546 1545 1543 1541 1539 1537 1536 1534 1533 1531 1530 1530 1532 1530 1529 1529 1528 1528 1526 1524 1524 1524 1525 1524 1521 1519 1516 1512 1508 1505 1500 1499
1556 1555 1554 1553 1552 1551 1550 1550 1550 1549 1549 1548 1547 1546 1545 1544 1543 1542 1540 1538 1536 1534 1532 1531 1531 1530 1529 1528 1529 1529 1528 1527 1526 1525 1524 1522 1522 1523 1523 1521 1519 1516 1513 1506 1494 1495 1494
1554 1553 1552 1552 1551 1549 1548 1548 1547 1547 1547 1546 1545 1544 1542 1541 1541 1540 1538 1536 1534 1533 1532 1531 1531 1530 1529 1528 1528 1528 1527 1526 1525 1524 1522 1522 1524 1523 1522 1521 1520 1514 1511 1504 1498 1491 1491
1552 1551 1550 1549 1548 1548 1547 1546 1545 1545 1544 1544 1543 1542 1541 1540 1539 1538 1537 1535 1533 1532 1531 1531 1529 1532 1530 1529 1526 1525 1525 1524 1524 1523 1521 1522 1524 1524 1521 1520 1519 1519 1513 1503 1503 1492 1489
1549 1548 1548 1548 1547 1546 1545 1544 1544 1543 1543 1542 1542 1540 1539 1538 1537 1537 1537 1536 1537 1534 1530 1529 1528 1526 1527 1528 1525 1523 1523 1522 1522 1522 1522 1521 1523 1520 1517 1517 1512 1510 1506 1496 1488 1485 1488
1546 1545 1545 1545 1544 1544 1543 1543 1542 1542 1541 1540 1539 1538 1538 1537 1537 1536 1536 1536 1537 1538 1530 1525 1525 1524 1524 1525 1524 1521 1522 1522 1522 1523 1520 1525 1517 1512 1511 1511 1510 1507 1501 1490 1480 1479 1482
1541 1542 1541 1542 1542 1542 1541 1541 1541 1540 1539 1538 1537 1537 1536 1536 1536 1537 1537 1537 1536 1535 1534 1523 1523 1522 1522 1524 1522 1519 1520 1520 1521 1522 1520 1521 1509 1509 1509 1505 1503 1498 1495 1486 1484 1478 1475
1535 1536 1537 1537 1538 1539 1539 1538 1538 1538 1536 1536 1536 1535 1534 1535 1538 1535 1537 1537 1535 1534 1543 1528 1522 1522 1522 1520 1520 1517 1517 1520 1521 1520 1517 1512 1506 1506 1505 1502 1499 1493 1484 1480 1477 1477 1469
1529 1530 1532 1533 1533 1534 1535 1535 1535 1534 1534 1534 1533 1533 1533 1534 1535 1535 1537 1537 1536 1536 1556 1526 1521 1520 1520 1521 1518 1516 1516 1517 1518 1517 1518 1506 1502 1503 1500 1494 1494 1490 1482 1477 1472 1470 1468
1521 1523 1524 1526 1527 1529 1531 1531 1532 1531 1531 1531 1532 1531 1531 1533 1535 1535 1535 1536 1538 1548 1546 1525 1519 1519 1520 1517 1517 1514 1515 1516 1516 1515 1511 1504 1499 1499 1494 1490 1488 1483 1478 1467 1465 1465 1465
1513 1515 1517 1519 1520 1522 1524 1526 1527 1528 1528 1528 1529 1530 1529 1531 1535 1535 1536 1536 1551 1556 1524 1521 1519 1518 1518 1516 1514 1512 1513 1515 1516 1517 1515 1504 1496 1491 1490 1489 1482 1483 1479 1482 1488 1495 1468
1506 1507 1508 1512 1514 1516 1517 1520 1521 1523 1525 1525 1526 1527 1527 1529 1532 1536 1536 1538 1552 1525 1521 1514 1516 1517 1517 1513 1513 1510 1510 1512 1507 1509 1512 1505 1509 1489 1485 1485 1482 1481 1481 1475 1462 1473 1441
1498 1499 1500 1503 1506 1509 1510 1513 1516 1517 1520 1521 1523 1523 1524 1526 1529 1534 1538 1551 1531 1519 1511 1513 1515 1517 1516 1512 1514 1510 1508 1508 1503 1504 1510 1509 1504 1481 1481 1478 1480 1477 1481 1469 1463 1458 1450
1491 1492 1493 1494 1498 1501 1503 1503 1508 1511 1513 1517 1519 1521 1521 1524 1527 1532 1536 1530 1517 1509 1509 1510 1514 1514 1515 1511 1513 1512 1506 1498 1497 1495 1496 1498 1496 1480 1476 1474 1471 1474 1470 1470 1473 1455 1439
1484 1486 1487 1488 1490 1494 1496 1499 1498 1501 1505 1512 1516 1519 1517 1521 1527 1530 1529 1525 1511 1504 1506 1509 1512 1512 1514 1509 1511 1510 1502 1496 1493 1493 1495 1496 1501 1485 1479 1472 1468 1472 1473 1472 1468 1462 1445
1478 1480 1481 1481 1483 1485 1488 1491 1496 1492 1498 1504 1510 1514 1514 1518 1525 1521 1517 1512 1506 1502 1503 1505 1507 1508 1509 1508 1506 1509 1502 1496 1491 1491 1493 1492 1494 1489 1479 1465 1466 1465 1465 1469 1465 1466 1455
1472 1473 1474 1474 1475 1477 1480 1483 1487 1486 1487 1493 1499 1508 1509 1513 1511 1510 1511 1506 1501 1500 1500 1501 1503 1503 1503 1506 1506 1503 1496 1489 1489 1490 1490 1490 1496 1491 1478 1469 1466 1466 1463 1461 1465 1464 1448
1467 1466 1466 1466 1467 1468 1470 1473 1476 1480 1479 1483 1491 1496 1502 1502 1500 1502 1508 1501 1497 1492 1495 1495 1495 1499 1502 1503 1501 1497 1495 1489 1488 1487 1486 1487 1490 1491 1485 1475 1472 1469 1463 1461 1463 1464 1452
1463 1461 1460 1460 1460 1459 1459 1461 1464 1470 1465 1468 1471 1473 1477 1483 1488 1495 1500 1495 1492 1490 1492 1492 1493 1493 1495 1500 1497 1496 1492 1490 1485 1485 1485 1487 1489 1486 1477 1472 1470 1467 1462 1456 1459 1450 1450
1459 1457 1456 1455 1454 1453 1450 1449 1452 1459 1460 1454 1454 1461 1469 1472 1477 1488 1491 1489 1486 1484 1486 1488 1489 1486 1490 1491 1488 1489 1488 1489 1488 1485 1484 1485 1485 1483 1476 1465 1466 1461 1452 1451 1447 1442 1436
1455 1452 1451 1448 1445 1442 1440 1437 1437 1443 1452 1438 1446 1452 1454 1463 1470 1475 1473 1475 1478 1479 1476 1476 1478 1485 1486 1482 1481 1481 1482 1484 1484 1485 1485 1486 1488 1488 1475 1467 1464 1453 1441 1441 1439 1435 1431
1450 1449 1446 1443 1438 1434 1427 1416 1419 1429 1434 1442 1442 1446 1450 1456 1462 1459 1465 1469 1473 1472 1472 1473 1476 1479 1477 1477 1479 1478 1477 1479 1481 1481 1483 1485 1487 1490 1483 1473 1472 1439 1439 1438 1438 1432 1427
1447 1444 1441 1438 1433 1428 1422 1416 1410 1416 1424 1431 1438 1443 1443 1450 1453 1459 1457 1461 1467 1469 1470 1472 1472 1475 1474 1475 1480 1479 1480 1477 1477 1479 1480 1482 1485 1488 1489 1486 1460 1437 1435 1437 1437 1431 1427
1443 1440 1438 1433 1428 1423 1417 1412 1405 1408 1418 1424 1432 1437 1441 1443 1446 1446 1451 1453 1460 1465 1469 1469 1471 1472 1473 1476 1482 1478 1480 1472 1473 1478 1480 1482 1484 1488 1488 1480 1463 1439 1434 1434 1436 1433 1426
1440 1437 1433 1428 1424 1418 1410 1404 1400 1392 1409 1416 1424 1431 1440 1441 1439 1440 1444 1448 1451 1456 1462 1466 1467 1471 1471 1476 1480 1482 1481 1475 1474 1470 1479 1483 1486 1487 1488 1483 1463 1437 1433 1433 1436 1438 1426
1436 1432 1428 1424 1420 1414 1406 1400 1394 1394 1405 1413 1418 1427 1433 1437 1438 1439 1440 1442 1446 1449 1456 1461 1467 1468 1471 1473 1476 1476 1480 1475 1472 1467 1471 1473 1481 1485 1486 1482 1471 1433 1432 1433 1434 1429 1427
1431 1427 1423 1418 1412 1408 1404 1396 1388 1392 1396 1403 1410 1417 1426 1434 1436 1437 1438 1441 1444 1445 1448 1452 1454 1453 1456 1465 1472 1473 1471 1478 1474 1466 1462 1466 1458 1462 1465 1453 1435 1432 1431 1430 1429 1429 1427
Wind_Speed
11 12 13 13 12 10 11 10 9 9 9 9 10 10 11 11 12 12 13 13 15 14 14 13 12 11 9 5 2 4 5 8 11 14 13 11 8 5 1 3 7 6 6 15 19 21 20
6 7 9 11 12 12 11 10 9 10 9 10 11 12 12 13 13 13 13 14 14 14 13 11 11 10 8 2 2 4 7 9 11 13 13 11 7 8 8 6 3 5 14 20 20 26 25
10 10 11 11 10 10 12 13 12 11 11 12 12 13 14 14 14 13 12 12 13 13 12 10 9 9 8 0 2 6 9 10 12 13 15 15 11 4 2 4 9 12 12 10 12 18 7
12 14 14 14 13 10 11 12 14 14 14 13 14 14 14 14 14 13 12 12 12 12 10 9 7 8 4 3 3 8 10 11 11 10 12 9 7 7 6 7 7 5 4 6 3 3 6
13 13 16 15 15 13 11 11 12 13 14 14 15 15 14 13 12 11 10 11 11 9 8 6 6 4 3 2 6 9 11 12 9 7 9 6 4 4 2 3 4 4 8 11 10 10 8
15 16 17 16 15 15 13 13 11 11 11 13 14 14 14 12 10 9 10 10 9 8 5 5 5 4 3 4 7 14 10 6 5 7 4 2 1 2 3 2 5 4 7 7 8 4 5
17 16 17 17 17 17 15 12 11 11 11 12 13 13 12 11 8 7 8 7 6 4 6 7 5 6 10 7 14 4 6 6 4 2 0 2 3 8 10 9 13 13 16 22 21 15 15
20 20 18 17 17 18 16 15 13 12 13 14 12 12 12 9 7 5 5 4 4 8 10 9 14 15 12 10 5 6 5 2 1 2 1 2 10 10 6 7 12 15 20 23 21 18 16
22 23 22 21 19 18 18 15 14 15 16 15 13 12 11 8 6 5 3 4 6 7 5 5 5 5 4 4 4 3 5 3 2 3 3 6 7 4 7 11 13 14 14 21 23 19 16
24 25 25 24 23 21 20 19 16 18 16 15 14 12 10 6 4 4 3 4 5 6 4 6 3 2 3 3 4 5 5 2 2 4 3 7 3 4 7 12 9 13 7 16 20 13 6
30 26 27 27 26 25 23 21 19 19 17 15 13 12 10 7 3 2 1 3 3 4 4 3 3 3 3 4 8 2 6 4 5 4 1 7 6 5 10 8 3 10 9 16 17 16 12
34 30 27 30 30 26 26 25 22 21 17 15 15 11 10 7 8 4 1 0 2 5 6 3 2 1 2 4 3 2 3 6 5 4 5 12 5 4 4 4 9 12 13 20 12 3 4
33 33 30 30 29 29 28 27 27 23 18 15 16 13 10 8 5 6 3 2 4 4 2 3 4 3 3 3 3 5 3 3 3 3 3 6 3 3 5 7 3 7 6 4 4 3 6
28 34 35 33 31 29 34 29 27 29 21 16 16 15 13 12 9 8 7 4 2 4 5 1 2 2 4 3 4 2 1 4 5 3 3 4 8 4 4 7 3 5 3 3 6 3 12
28 29 33 35 33 31 36 34 32 30 24 19 17 16 15 12 14 12 5 2 7 6 4 5 1 1 3 2 4 2 5 4 5 8 5 3 6 5 6 6 5 3 3 4 6 5 3
28 30 30 32 36 34 34 44 36 32 29 23 18 13 14 15 17 15 2 6 5 5 3 3 5 5 4 2 1 2 3 4 4 10 5 3 7 6 6 2 8 6 2 4 3 5 5
28 28 30 31 29 37 37 32 41 37 33 24 18 5 8 19 18 11 5 7 6 10 8 6 5 4 6 3 4 3 5 4 4 2 8 1 4 8 5 4 3 0 2 3 4 3 4
20 22 24 28 31 31 41 38 29 40 38 29 17 4 17 26 7 6 5 6 4 5 11 4 4 7 6 6 3 4 6 5 4 4 3 4 2 5 10 8 6 2 3 3 3 5 4
22 24 25 26 29 30 32 45 38 46 46 36 17 10 25 30 7 9 5 5 7 4 5 6 6 6 4 6 3 6 4 5 3 5 3 3 2 5 8 4 2 3 3 3 3 4 7
21 24 26 27 29 28 31 36 43 41 53 45 16 6 10 26 13 7 4 5 5 10 5 7 4 5 4 4 6 4 3 3 1 5 5 3 3 6 6 11 5 9 9 6 5 3 5
15 17 18 24 27 29 33 35 42 34 61 51 21 8 16 8 15 16 5 3 5 7 8 12 3 8 7 5 3 5 4 4 4 3 3 4 5 5 11 15 13 15 16 15 7 11 7
14 16 19 22 27 34 24 31 40 39 60 47 14 8 17 5 22 22 16 6 8 4 8 6 6 7 8 7 9 7 4 2 6 1 3 1 4 3 9 8 4 12 14 12 11 9 15
16 18 20 23 24 26 36 36 43 43 53 21 20 21 18 12 11 13 16 18 8 6 9 10 14 5 6 14 20 22 14 9 7 3 2 1 1 3 5 6 10 3 4 5 6 5 3
16 20 21 22 23 27 30 23 32 46 52 43 30 21 9 5 10 13 9 21 18 14 5 4 10 7 4 4 5 7 7 10 9 7 7 3 1 1 4 7 3 5 5 6 5 9 7
14 18 20 22 23 23 25 20 14 40 54 50 29 20 11 3 12 9 10 8 16 15 5 5 8 5 7 3 2 4 3 1 2 3 6 5 3 2 2 2 7 6 3 4 4 5 3
17 16 21 23 26 26 22 20 33 45 48 50 30 40 11 6 9 15 8 11 5 5 3 5 5 8 6 3 2 2 3 2 3 3 5 5 3 2 1 3 4 5 1 1 3 3 4
19 20 23 23 27 29 23 24 19 41 49 48 37 27 29 4 4 17 4 9 9 5 4 4 7 5 7 3 2 4 3 3 3 3 4 2 1 4 4 4 8 9 5 1 4 5 10
21 22 23 24 27 29 27 33 33 49 43 38 42 40 32 17 7 11 7 5 10 10 5 9 5 2 2 4 4 3 3 4 1 3 5 6 6 4 2 2 6 2 5 2 4 5 8
22 24 26 27 28 28 30 31 26 52 43 46 35 49 33 14 7 10 11 9 12 12 12 17 2 6 9 4 1 2 2 0 2 3 1 3 6 4 8 6 6 5 7 8 8 8 6
Wind_Direction
275 285 294 295 289 284 283 289 300 305 303 302 304 303 305 311 314 319 318 320 320 321 319 321 327 339 356 354 48 12 356 354 347 352 359 8 15 358 326 301 306 240 260 268 274 284 287
303 307 308 310 298 293 284 284 288 291 292 293 295 297 300 306 311 314 318 319 319 317 319 320 327 335 345 357 44 10 354 341 335 339 339 340 332 307 289 256 234 289 290 285 290 283 277
308 310 307 310 309 301 296 295 293 291 294 293 294 297 300 302 307 312 315 318 318 316 318 316 321 328 322 114 349 350 336 335 330 331 328 324 315 280 311 282 267 284 287 285 266 263 258
294 300 308 307 310 299 295 294 297 296 293 290 291 294 296 301 307 310 312 317 317 314 312 312 311 321 289 255 308 334 329 329 323 325 324 325 317 262 249 291 304 277 261 287 200 133 241
306 287 303 307 306 305 297 289 294 299 299 297 298 299 296 295 301 306 310 315 317 317 312 303 305 312 297 247 311 323 327 316 311 321 327 334 340 266 264 268 289 245 274 270 295 227 255
311 305 305 308 306 306 300 292 292 296 298 299 302 306 303 295 298 305 311 321 321 307 294 296 273 303 254 294 310 318 311 301 304 318 347 40 306 294 257 221 269 273 270 262 262 301 250
301 304 308 307 307 304 299 296 299 302 301 300 307 309 305 296 291 301 313 333 334 290 278 254 273 266 291 298 305 291 297 298 284 315 356 204 245 257 262 227 255 276 280 280 272 267 282
287 293 296 303 306 302 301 296 296 299 294 294 299 307 308 292 283 290 324 7 341 315 307 269 256 261 276 288 286 288 252 228 225 278 263 320 263 255 252 246 253 258 270 271 279 272 256
276 277 287 290 296 300 296 289 282 285 284 290 292 302 305 287 278 284 311 342 334 329 292 281 239 259 259 260 266 250 202 194 206 281 237 213 256 265 282 275 264 262 268 280 278 288 266
273 269 269 278 285 289 295 290 274 277 281 284 288 299 299 273 266 254 310 327 335 340 49 280 237 251 227 236 263 243 222 221 210 258 258 270 268 240 274 286 283 298 279 265 273 288 292
262 266 266 268 275 281 285 288 285 273 279 277 278 289 290 232 231 215 288 322 343 357 3 266 207 209 233 225 308 230 218 197 231 233 136 266 259 259 284 267 163 254 286 271 270 266 288
255 256 260 264 266 269 274 279 283 279 274 267 273 278 284 252 236 235 227 55 334 44 261 296 197 225 261 208 254 231 176 218 263 267 226 256 257 255 236 303 234 266 284 285 271 265 253
259 256 255 253 263 261 262 266 274 277 274 259 266 267 265 230 220 204 182 106 29 138 10 244 233 183 224 249 265 186 180 199 217 328 290 294 240 255 199 283 269 232 290 307 338 1 233
261 258 255 256 260 259 262 261 254 273 270 254 261 261 255 230 196 186 165 62 124 228 208 329 142 169 235 177 248 225 263 280 235 190 309 319 325 210 176 212 256 244 197 297 298 290 296
261 263 259 257 259 260 260 252 256 254 254 251 250 259 252 222 189 177 185 97 214 209 177 169 119 188 281 255 210 308 211 227 232 178 180 289 258 270 196 205 153 18 228 215 273 258 276
264 264 266 259 257 257 258 250 252 241 241 246 239 252 244 197 183 173 139 244 240 204 177 124 201 186 235 243 222 232 242 209 245 191 194 245 286 259 295 202 228 195 266 307 285 307 282
265 267 268 268 263 256 261 262 247 231 229 225 219 219 205 180 174 177 211 227 266 241 195 170 202 214 225 245 197 249 255 272 230 161 177 169 203 287 321 214 242 248 300 260 273 244 306
268 276 275 272 269 265 255 259 265 232 224 210 191 192 178 171 166 207 212 205 233 240 206 223 174 204 205 183 236 247 235 226 206 165 211 219 213 279 262 290 255 243 246 144 286 307 262
278 276 271 272 271 271 263 255 260 222 221 194 175 177 176 181 201 212 243 267 230 196 199 182 212 204 177 200 224 212 244 264 229 181 211 178 251 302 326 3 25 296 240 236 207 243 265
285 283 275 271 273 276 263 256 253 240 236 202 169 161 181 198 227 154 200 242 232 217 210 188 194 165 152 228 223 262 253 289 234 226 243 177 218 204 256 265 294 294 276 268 249 256 312
301 300 293 283 274 273 270 253 249 240 217 196 179 195 183 195 211 206 177 267 196 204 212 198 215 204 174 222 224 227 240 269 267 265 182 167 247 222 251 262 273 269 271 283 223 235 241
321 320 301 299 278 277 277 258 246 237 209 192 176 165 172 178 186 202 202 226 206 202 161 223 213 203 187 202 201 198 202 187 242 297 194 214 271 332 287 266 232 283 279 260 263 251 257
317 323 318 307 301 302 282 289 238 222 207 197 207 187 163 175 170 178 208 216 215 193 221 204 205 163 190 233 242 257 264 255 247 216 208 254 302 347 266 321 307 302 276 259 278 254 265
319 315 318 321 311 300 304 326 228 217 214 214 196 182 167 166 176 192 186 207 218 215 194 204 181 164 193 180 277 265 264 254 247 242 212 185 109 186 282 333 1 246 296 227 249 281 287
327 330 324 324 317 308 305 277 274 214 209 205 203 196 194 161 191 185 194 171 208 220 213 197 191 203 170 104 24 357 339 318 211 211 203 185 131 274 303 273 285 319 6 346 35 297 327
300 314 326 330 328 312 304 312 238 214 209 206 196 201 214 142 219 186 173 176 156 164 152 194 171 181 162 93 103 159 247 253 244 153 54 106 88 137 325 295 270 248 249 292 150 303 338
320 313 307 315 324 327 299 317 319 195 199 206 202 203 208 245 265 179 163 185 179 146 131 146 165 167 172 120 169 184 252 206 240 203 170 141 138 204 228 271 283 257 280 331 47 279 329
327 326 322 314 313 323 314 317 334 205 207 208 212 203 196 217 247 205 193 165 160 181 150 156 113 197 84 150 173 203 182 231 252 207 181 175 159 204 151 233 288 214 329 64 231 309 319
316 321 327 322 314 317 321 317 346 204 213 206 200 205 203 195 209 216 213 205 205 194 179 172 202 158 168 108 185 124 183 142 208 267 168 229 194 183 185 219 253 275 264 281 316 301 328